[[{"header":{"parameterUnit":"m.s-1","parameterCategory":1,"la1":30.2992,"la2":30.254,"lo1":-89.0895,"lo2":-89.0443,"dy":0.0025,"dx":0.0025,"nx":19,"ny":19,"refTime":"2026-05-22T09:00:00:Z","depth":0,"parameterNumber":2,"parameterNumberName":"U-component_of_WINDS"},"data":[0,0,0,-1.4458,-1.4458,-1.4463,-1.4463,-1.448,-1.448,0,0,0,0,0,0,0,0,0,0,0,-1.4463,-1.4463,-1.4458,-1.4458,-1.4463,-1.4463,-1.448,-1.448,0,0,0,0,0,0,0,0,0,0,0,-1.4462,-1.4463,-1.4463,-1.4458,-1.4463,-1.4463,-1.448,-1.4472,0,0,0,0,0,0,0,0,0,0,-1.4466,-1.4476,-1.4463,-1.4463,-1.4458,-1.4463,-1.4463,-1.4472,-1.4473,-1.4482,0,-1.4491,0,-1.4486,-1.4482,-1.4482,0,0,0,-1.4454,-1.4475,-1.4471,-1.4463,-1.4458,-1.4463,-1.446,-1.4472,-1.4473,-1.4483,-1.4491,-1.4492,-1.4486,-1.4482,-1.4482,-1.4548,-1.4549,0,0,-1.4454,-1.4467,-1.447,-1.4472,-1.4471,-1.4459,-1.446,-1.4473,-1.4482,-1.4491,-1.4492,-1.4486,-1.4482,-1.4482,-1.4548,-1.4548,0,0,0,-1.4456,-1.4467,-1.4462,-1.4471,-1.4471,-1.446,-1.446,-1.4482,-1.4479,-1.4492,-1.4487,-1.4482,-1.4482,-1.4547,-1.4548,-1.4585,0,0,0,-1.4456,-1.4468,-1.4462,-1.447,-1.4471,-1.4476,-1.4469,-1.4478,-1.4479,-1.4486,-1.4482,-1.4483,-1.4546,-1.4547,-1.4583,-1.4601,0,0,0,-1.446,-1.4468,-1.4471,-1.4471,-1.4473,-1.4476,-1.4474,-1.4478,-1.4476,-1.4482,-1.4483,-1.4546,-1.4547,-1.4581,-1.4598,-1.4622,0,0,0,-1.4469,-1.4504,-1.4472,-1.4509,-1.4473,-1.4499,-1.4474,-1.4492,-1.4501,-1.4482,-1.4546,-1.4548,-1.458,-1.4595,-1.462,-1.4646,-1.4657,0,0,-1.452,-1.4511,-1.4531,-1.4503,-1.4538,-1.4497,-1.4538,-1.4534,-1.4523,-1.4541,-1.4542,-1.4584,-1.4597,-1.4622,-1.4718,-1.4728,0,0,0,-1.4552,-1.4567,-1.4574,-1.4583,-1.4581,-1.4581,-1.457,-1.4568,-1.4583,-1.4535,-1.4599,-1.4607,-1.4621,-1.4632,-1.464,-1.4652,-1.4554,-1.4553,-1.4553,-1.4643,-1.4627,-1.4661,-1.4646,-1.4655,-1.4643,-1.465,-1.4646,-1.4627,-1.4643,-1.4648,-1.4708,-1.4722,-1.4728,-1.4741,-1.466,-1.466,-1.466,-1.466,-1.4717,-1.4737,-1.4711,-1.4734,-1.4718,-1.4738,-1.4728,-1.4715,-1.4731,-1.4703,-1.4715,-1.4685,-1.4739,-1.4749,-1.4663,-1.4663,-1.4662,-1.4662,-1.4662,-1.4775,-1.4782,-1.478,-1.4792,-1.4803,-1.4787,-1.4804,-1.4788,-1.4773,-1.4785,-1.4789,-1.4788,-1.4786,-1.4788,-1.4788,-1.4788,-1.4788,-1.4789,-1.4789,-1.4837,-1.4833,-1.4849,-1.4851,-1.4855,-1.4858,-1.4848,-1.4851,-1.4852,-1.4839,-1.4839,-1.4819,-1.4747,-1.4729,-1.4792,-1.4791,-1.4791,-1.4791,-1.479,-1.4919,-1.4898,-1.4923,-1.4927,-1.4928,-1.494,-1.492,-1.4929,-1.493,-1.494,-1.4918,-1.4867,-1.4856,-1.4849,-1.4835,-1.492,-1.492,-1.492,-1.492,-1.4968,-1.4961,-1.4983,-1.4991,-1.4997,-1.4981,-1.5011,-1.5004,-1.4993,-1.4993,-1.4978,-1.4957,-1.4951,-1.4944,-1.4935,-1.4921,-1.5027,-1.5028,-1.5028,-1.5018,-1.5011,-1.5039,-1.5027,-1.5027,-1.5027,-1.5055,-1.5066,-1.5049,-1.5032,-1.4992,-1.4988,-1.4954,-1.4944,-1.4926,-1.4913,-1.4887,0,0]},{"header":{"parameterUnit":"m.s-1","parameterCategory":1,"la1":30.2992,"la2":30.254,"lo1":-89.0895,"lo2":-89.0443,"dy":0.0025,"dx":0.0025,"nx":19,"ny":19,"refTime":"2026-05-22T09:00:00:Z","depth":0,"parameterNumber":3,"parameterNumberName":"V-component_of_WINDS"},"data":[0,0,0,4.3096,4.3098,4.32,4.32,4.3329,4.3331,0,0,0,0,0,0,0,0,0,0,0,4.3067,4.3068,4.3096,4.3098,4.32,4.32,4.3329,4.3331,0,0,0,0,0,0,0,0,0,0,0,4.3066,4.3067,4.3068,4.3099,4.32,4.32,4.3329,4.3252,0,0,0,0,0,0,0,0,0,0,4.3153,4.3128,4.3067,4.3068,4.3099,4.32,4.32,4.3248,4.3257,4.3283,0,4.3309,0,4.3322,4.3339,4.334,0,0,0,4.3097,4.3121,4.3147,4.3069,4.31,4.3199,4.3154,4.3253,4.3263,4.3295,4.331,4.3315,4.3324,4.334,4.3341,4.3501,4.3502,0,0,4.3092,4.3085,4.3141,4.3154,4.314,4.315,4.3157,4.3259,4.3275,4.3311,4.3318,4.3326,4.3341,4.3342,4.35,4.3501,0,0,0,4.3076,4.3081,4.3105,4.3148,4.3167,4.3153,4.3161,4.3271,4.3279,4.332,4.3328,4.3342,4.3343,4.35,4.3501,4.3535,0,0,0,4.3073,4.3072,4.3103,4.31,4.3165,4.322,4.317,4.3272,4.3284,4.3327,4.3342,4.3345,4.3499,4.35,4.3533,4.3553,0,0,0,4.306,4.3071,4.3086,4.3099,4.3143,4.3219,4.3233,4.3275,4.3289,4.334,4.3345,4.3498,4.35,4.353,4.3549,4.3594,0,0,0,4.3043,4.3114,4.3086,4.3168,4.3142,4.324,4.3233,4.3305,4.3353,4.3342,4.3499,4.3501,4.3529,4.3546,4.3591,4.3632,4.3648,0,0,4.3129,4.3124,4.3172,4.3151,4.3252,4.3225,4.333,4.3379,4.3389,4.3463,4.3467,4.3534,4.3548,4.3594,4.3739,4.3752,0,0,0,4.3197,4.3232,4.326,4.3307,4.3347,4.3383,4.3417,4.3435,4.3498,4.3426,4.3562,4.3571,4.3598,4.3617,4.3628,4.3652,4.3509,4.3509,4.3509,4.3309,4.3319,4.34,4.3423,4.3467,4.3502,4.3539,4.357,4.3565,4.3597,4.362,4.3707,4.3729,4.3738,4.3762,4.3641,4.3641,4.3641,4.3641,4.3435,4.3487,4.3481,4.3558,4.3568,4.3632,4.3668,4.3663,4.3723,4.369,4.3714,4.3679,4.3751,4.3773,4.3644,4.3643,4.3643,4.3643,4.3643,4.3511,4.3537,4.3559,4.3628,4.3679,4.3698,4.3757,4.3763,4.3769,4.3793,4.3818,4.3817,4.3818,4.3804,4.3804,4.3805,4.3805,4.3805,4.3805,4.3581,4.3604,4.3654,4.3703,4.3734,4.3775,4.381,4.384,4.3875,4.3875,4.3875,4.3868,4.3757,4.3729,4.381,4.3809,4.3809,4.3808,4.3808,4.3707,4.368,4.3757,4.3788,4.3846,4.3897,4.3904,4.3964,4.399,4.4019,4.4007,4.3923,4.3918,4.3909,4.3887,4.4004,4.4004,4.4004,4.4004,4.3772,4.377,4.3851,4.39,4.3948,4.3963,4.4049,4.4077,4.4101,4.4117,4.4101,4.4071,4.4062,4.4062,4.405,4.4029,4.418,4.418,4.418,4.385,4.3854,4.3927,4.3952,4.3997,4.4036,4.4118,4.4173,4.4195,4.4188,4.413,4.4123,4.4074,4.4058,4.405,4.4032,4.3993,0,0]}]]